FW1633 Weather Reports


time (UTC)temp
C
wind
direction
speed
KPH
gust
KPH
rain 1hr
cm
rain 24hr
cm
rain mn
cm
humidity
%
barometer
mb
20260504193011 22 204 0.0 0.0 0.00 0.00 0.00 46 1010.4
20260504192506 22 202 0.0 0.0 0.00 0.00 0.00 45 1010.5
20260504192006 22 191 0.0 0.0 0.00 0.00 0.00 43 1010.5
20260504191520 22 110 0.0 0.0 0.00 0.00 0.00 40 1010.7
20260504191012 22 274 0.0 0.0 0.00 0.00 0.00 37 1010.7
20260504190507 22 209 0.0 0.0 0.00 0.00 0.00 37 1010.7
20260504190004 22 176 0.0 0.0 0.00 0.00 0.00 37 1010.8
20260504185506 22 222 0.0 0.0 0.00 0.00 0.00 37 1010.8
20260504185002 22 249 0.0 0.0 0.00 0.00 0.00 37 1010.8
20260504184512 22 192 0.0 0.0 0.00 0.00 0.00 37 1010.9
20260504184003 22 193 0.0 0.0 0.00 0.00 0.00 38 1010.9
20260504183505 22 226 0.0 0.0 0.00 0.00 0.00 37 1011.0
20260504183018 22 221 0.0 0.0 0.00 0.00 0.00 37 1011.0
20260504182508 22 254 0.0 0.0 0.00 0.00 0.00 38 1011.1
20260504182004 21 238 0.0 0.0 0.00 0.00 0.00 38 1011.0
20260504181516 22 218 0.0 0.0 0.00 0.00 0.00 38 1011.2
20260504181008 21 189 0.0 0.0 0.00 0.00 0.00 38 1011.2
20260504180504 21 218 0.0 0.0 0.00 0.00 0.00 38 1011.2
20260504180020 21 199 0.0 0.0 0.00 0.00 0.00 39 1011.3
20260504175507 21 106 0.0 0.0 0.00 0.00 0.00 38 1011.5
20260504175011 21 206 0.0 0.0 0.00 0.00 0.00 38 1011.5
20260504174506 21 211 0.0 0.0 0.00 0.00 0.00 38 1011.6
20260504174004 21 43 0.0 0.0 0.00 0.00 0.00 38 1011.7
20260504173506 22 228 0.0 0.0 0.00 0.00 0.00 37 1011.6
20260504173015 21 195 0.0 0.0 0.00 0.00 0.00 38 1011.7
20260504172502 21 264 0.0 0.0 0.00 0.00 0.00 38 1011.8
20260504172002 21 269 0.0 0.0 0.00 0.00 0.00 39 1011.8
20260504171518 21 282 0.0 0.0 0.00 0.00 0.00 38 1011.9
20260504171008 21 155 0.0 0.0 0.00 0.00 0.00 39 1011.9
20260504170506 21 329 0.0 0.0 0.00 0.00 0.00 38 1012.0
20260504151015 19 262 0.0 0.0 0.00 0.00 0.00 41 1013.5
20260504150503 18 257 0.0 0.0 0.00 0.00 0.00 40 1013.6
20260504141009 17 195 0.0 0.0 0.00 0.00 0.00 48 1013.8
20260504140507 17 293 0.0 0.0 0.00 0.00 0.00 49 1013.9
20260504130507 15 265 0.0 0.0 0.00 0.00 0.00 54 1014.4
20260504110505 12 179 0.0 0.0 0.00 0.00 0.00 57 1014.8
20260504100505 11 235 0.0 0.0 0.00 0.00 0.00 56 1014.4
20260504081511 12 195 0.0 0.0 0.00 0.00 0.00 51 1013.8
20260504081004 12 219 0.0 0.0 0.00 0.00 0.00 50 1013.8
20260504080503 12 223 0.0 0.0 0.00 0.00 0.00 50 1013.8
20260504050503 12 228 0.0 0.0 0.00 0.00 0.00 50 1013.2
20260504050007 12 228 0.0 0.0 0.00 0.00 0.00 50 1013.2
20260504045504 12 251 0.0 0.0 0.00 0.00 0.00 50 1013.3
20260504045007 12 223 0.0 0.0 0.00 0.00 0.00 50 1013.3
20260504044530 12 225 0.0 0.0 0.00 0.00 0.00 50 1013.2
20260504044002 12 211 0.0 0.0 0.00 0.00 0.00 50 1013.2
20260504043501 12 229 0.0 0.0 0.00 0.00 0.00 49 1013.1
20260504043004 12 233 0.0 0.0 0.00 0.00 0.00 49 1013.0
20260504042503 12 235 0.0 0.0 0.00 0.00 0.00 49 1012.8
20260504042006 12 211 0.0 0.0 0.00 0.00 0.00 49 1012.9
20260504041503 12 230 0.0 0.0 0.00 0.00 0.00 48 1012.8
20260504041002 12 265 0.0 0.0 0.00 0.00 0.00 48 1012.8
20260504040503 12 238 0.0 0.0 0.00 0.00 0.00 48 1012.8
20260504040005 12 248 0.0 0.0 0.00 0.00 0.00 48 1012.8
20260504035506 12 245 0.0 0.0 0.00 0.00 0.00 48 1012.8
20260504035002 12 219 0.0 0.0 0.00 0.00 0.00 48 1012.8
20260504034508 12 278 0.0 0.0 0.00 0.00 0.00 48 1012.8
20260504034003 12 214 0.0 0.0 0.00 0.00 0.00 47 1012.8
20260504033505 12 214 0.0 0.0 0.00 0.00 0.00 47 1012.9
20260504033016 12 245 0.0 0.0 0.00 0.00 0.00 47 1012.8
20260504032503 12 255 0.0 0.0 0.00 0.00 0.00 47 1012.8
20260504032007 12 226 0.0 0.0 0.00 0.00 0.00 47 1012.8
20260504031503 12 232 0.0 0.0 0.00 0.00 0.00 47 1012.8
20260504031002 12 224 0.0 0.0 0.00 0.00 0.00 47 1012.9
20260504030502 12 231 0.0 0.0 0.00 0.00 0.00 48 1012.9
20260504030004 12 229 0.0 0.0 0.00 0.00 0.00 48 1012.9
20260504025503 12 233 0.0 0.0 0.00 0.00 0.00 48 1012.9
20260504025003 12 233 0.0 0.0 0.00 0.00 0.00 48 1013.0
20260504024505 12 233 0.0 0.0 0.00 0.00 0.00 48 1013.0
20260504024006 12 233 0.0 0.0 0.00 0.00 0.00 47 1013.0
20260504023507 12 233 0.0 0.0 0.00 0.00 0.00 45 1013.0
20260504023008 12 233 0.0 0.0 0.00 0.00 0.00 45 1013.0
20260504022504 13 233 0.0 0.0 0.00 0.00 0.00 45 1013.0
20260504022003 13 233 0.0 0.0 0.00 0.00 0.00 44 1013.0
20260504021511 13 233 0.0 0.0 0.00 0.00 0.00 43 1013.1
20260504021006 13 234 0.0 0.0 0.00 0.00 0.00 43 1013.0
20260504020506 13 224 0.0 0.0 0.00 0.00 0.00 43 1012.9
20260504020019 13 224 0.0 0.0 0.00 0.00 0.00 42 1012.9
20260504015503 13 221 0.0 0.0 0.00 0.00 0.00 42 1013.0
20260504015002 13 231 0.0 0.0 0.00 0.00 0.00 42 1012.9
20260504014505 13 252 0.0 0.0 0.00 0.00 0.00 42 1012.9
20260504014003 13 275 0.0 0.0 0.00 0.00 0.00 42 1012.8
20260504013503 13 230 0.0 0.0 0.00 0.00 0.00 42 1012.8
20260504013009 13 238 0.0 0.0 0.00 0.00 0.00 43 1012.8
20260504012504 13 235 0.0 0.0 0.00 0.00 0.00 43 1012.7
20260504012004 13 226 0.0 0.0 0.00 0.00 0.00 43 1012.6
20260504011509 13 223 0.0 0.0 0.00 0.00 0.00 43 1012.5
20260504011007 13 233 0.0 0.0 0.00 0.00 0.00 42 1012.4
20260504010503 13 224 0.0 0.0 0.00 0.00 0.00 43 1012.3
20260504010018 13 231 0.0 0.0 0.00 0.00 0.00 43 1012.3
20260504005506 13 233 0.0 0.0 0.00 0.00 0.00 41 1012.3
20260504005005 13 221 0.0 0.0 0.00 0.00 0.00 40 1012.2
20260504004520 13 258 0.0 0.0 0.00 0.00 0.00 40 1012.2
20260504004007 14 302 0.0 0.0 0.00 0.00 0.00 39 1012.1
20260504003503 14 266 0.0 0.0 0.00 0.00 0.00 39 1012.1
20260504003005 14 264 0.0 0.0 0.00 0.00 0.00 39 1012.0
20260504002503 14 261 0.0 0.0 0.00 0.00 0.00 40 1012.0
20260504002003 14 253 0.0 0.0 0.00 0.00 0.00 39 1011.9
20260504001508 14 292 0.0 0.0 0.00 0.00 0.00 39 1011.7
20260504001004 14 339 0.0 0.0 0.00 0.00 0.00 39 1011.6
20260504000504 14 64 0.0 0.0 0.00 0.00 0.00 40 1011.6
20260504000014 14 304 0.0 0.0 0.00 0.00 0.00 40 1011.6
20260503235503 14 277 0.0 0.0 0.00 0.00 0.00 40 1011.6
20260503235007 14 36 0.0 0.0 0.00 0.00 0.00 42 1011.5
20260503234516 14 350 0.0 0.0 0.00 0.00 0.00 44 1011.5
20260503234011 14 20 0.0 0.0 0.00 0.00 0.00 42 1011.5
20260503233508 14 52 0.0 0.0 0.00 0.00 0.00 43 1011.3
20260503233021 14 309 0.0 0.0 0.00 0.00 0.00 40 1011.3
20260503232506 14 314 0.0 0.0 0.00 0.00 0.00 41 1011.2
20260503232003 14 353 0.0 0.0 0.00 0.00 0.00 37 1011.2
20260503231504 14 275 0.0 0.0 0.00 0.00 0.00 38 1011.1
20260503231004 14 326 0.0 0.0 0.00 0.00 0.00 38 1011.1
20260503230505 14 65 0.0 0.0 0.00 0.00 0.00 40 1011.1
20260503230006 14 314 0.0 0.0 0.00 0.00 0.00 41 1011.1
20260503225504 15 7 0.0 0.0 0.00 0.00 0.00 40 1011.0
20260503225004 15 323 0.0 0.0 0.00 0.00 0.00 41 1011.0
20260503224515 15 60 0.0 0.0 0.00 0.00 0.00 40 1011.0
20260503224007 15 355 0.0 0.0 0.00 0.00 0.00 42 1011.1
20260503223507 15 270 0.0 0.0 0.00 0.00 0.00 36 1011.1
20260503223020 15 309 0.0 0.0 0.00 0.00 0.00 38 1011.0
20260503222510 15 273 0.0 0.0 0.00 0.00 0.00 39 1011.0
20260503222006 15 15 0.0 0.0 0.00 0.00 0.00 41 1011.0
20260503221531 15 4 0.0 0.0 0.00 0.00 0.00 43 1011.0
20260503221008 15 94 0.0 0.0 0.00 0.00 0.00 39 1010.9
20260503220508 15 8 0.0 0.0 0.00 0.00 0.00 40 1011.0
20260503220007 15 345 0.0 0.0 0.00 0.00 0.00 40 1011.0
20260503215504 15 354 0.0 0.0 0.00 0.00 0.00 34 1011.1
20260503215004 15 305 0.0 0.0 0.00 0.00 0.00 34 1011.1
20260503214514 15 292 0.0 0.0 0.00 0.00 0.00 34 1011.1
20260503214008 15 60 0.0 0.0 0.00 0.00 0.00 36 1011.1
20260503213505 15 323 0.0 0.0 0.00 0.00 0.00 38 1011.0
20260503213027 15 24 0.0 0.0 0.00 0.00 0.00 37 1010.9
20260503212505 15 308 0.0 0.0 0.00 0.00 0.00 36 1010.9
20260503212006 15 319 0.0 0.0 0.00 0.00 0.00 36 1010.9
20260503211522 15 280 0.0 0.0 0.00 0.00 0.00 36 1010.9
20260503211011 15 348 0.0 0.0 0.00 0.00 0.00 38 1010.8
20260503210509 14 332 0.0 0.0 0.00 0.00 0.00 38 1010.6
20260503210026 15 294 0.0 0.0 0.00 0.00 0.00 42 1010.7
20260503205507 14 289 0.0 0.0 0.00 0.00 0.00 37 1010.7
20260503205015 14 358 0.0 0.0 0.00 0.00 0.00 38 1010.6
20260503204527 14 212 0.0 0.0 0.00 0.00 0.00 37 1010.6
20260503204007 13 243 0.0 0.0 0.00 0.00 0.00 43 1010.8
20260503203502 13 298 0.0 0.0 0.00 0.00 0.00 40 1010.8
20260503203012 14 39 0.0 0.0 0.00 0.00 0.00 43 1010.8
20260503202505 14 345 0.0 0.0 0.00 0.00 0.00 42 1010.8
20260503202006 14 295 0.0 0.0 0.00 0.00 0.00 36 1010.8
20260503201527 14 338 0.0 0.0 0.00 0.00 0.00 39 1010.8
20260503201008 14 23 0.0 0.0 0.00 0.00 0.00 39 1010.9
20260503200509 14 85 0.0 0.0 0.00 0.00 0.00 41 1011.0
20260503200030 13 285 0.0 0.0 0.00 0.00 0.00 43 1011.0
20260503195507 13 306 0.0 0.0 0.00 0.00 0.00 41 1010.9
20260503195007 14 268 0.0 0.0 0.00 0.00 0.00 39 1011.0
20260503194528 14 305 0.0 0.0 0.00 0.00 0.00 41 1010.9
20260503194009 13 290 0.0 0.0 0.00 0.00 0.00 43 1011.0
20260503193513 13 18 0.0 0.0 0.00 0.00 0.00 45 1011.0